Time,TemperatureF,DewpointF,PressureIn,WindDirection,WindDirectionDegrees,WindSpeedMPH,WindSpeedGustMPH,Humidity,HourlyPrecipIn,Conditions,Clouds,dailyrainin,SoftwareType,DateUTC
2013-04-22 00:01:00,42.0,36.0,30.68,NE,45,5.0,12.0,78,0.00,,,0.00,Rainwise IP-100,2013-04-22 04:01:00,
2013-04-22 00:06:00,42.0,36.0,30.68,East,90,4.0,13.0,78,0.00,,,0.00,Rainwise IP-100,2013-04-22 04:06:00,
2013-04-22 00:11:00,42.0,36.0,30.67,NE,45,9.0,14.0,78,0.00,,,0.00,Rainwise IP-100,2013-04-22 04:11:00,
2013-04-22 00:14:00,42.0,36.0,30.67,ENE,67,3.0,15.0,78,0.00,,,0.00,Rainwise IP-100,2013-04-22 04:14:00,
2013-04-22 00:17:00,42.0,36.0,30.67,ENE,67,6.0,15.0,78,0.00,,,0.00,Rainwise IP-100,2013-04-22 04:17:00,
2013-04-22 00:22:00,42.0,36.0,30.67,ENE,67,2.0,13.0,78,0.00,,,0.00,Rainwise IP-100,2013-04-22 04:22:00,
2013-04-22 00:27:00,42.0,36.0,30.67,East,90,9.0,14.0,78,0.00,,,0.00,Rainwise IP-100,2013-04-22 04:27:00,
2013-04-22 00:32:00,42.0,36.0,30.67,NNE,22,7.0,12.0,78,0.00,,,0.00,Rainwise IP-100,2013-04-22 04:32:00,
2013-04-22 00:37:00,42.0,36.0,30.67,ENE,67,6.0,10.0,78,0.00,,,0.00,Rainwise IP-100,2013-04-22 04:37:00,
2013-04-22 00:42:00,42.0,36.0,30.68,East,90,6.0,13.0,78,0.00,,,0.00,Rainwise IP-100,2013-04-22 04:42:00,
2013-04-22 00:47:00,42.0,36.0,30.68,ENE,67,13.0,13.0,78,0.00,,,0.00,Rainwise IP-100,2013-04-22 04:47:00,
2013-04-22 00:52:00,42.0,36.0,30.68,ENE,67,13.0,16.0,78,0.00,,,0.00,Rainwise IP-100,2013-04-22 04:52:00,
2013-04-22 00:57:00,42.0,36.0,30.68,NE,45,7.0,13.0,78,0.00,,,0.00,Rainwise IP-100,2013-04-22 04:57:00,
2013-04-22 01:02:00,42.0,36.0,30.67,ENE,67,4.0,13.0,78,0.00,,,0.00,Rainwise IP-100,2013-04-22 05:02:00,
2013-04-22 01:07:00,42.0,36.0,30.67,ENE,67,12.0,12.0,78,0.00,,,0.00,Rainwise IP-100,2013-04-22 05:07:00,
2013-04-22 01:12:00,42.0,36.0,30.67,ENE,67,6.0,15.0,78,0.00,,,0.00,Rainwise IP-100,2013-04-22 05:12:00,
2013-04-22 01:18:00,42.0,36.0,30.67,East,90,11.0,14.0,78,0.00,,,0.00,Rainwise IP-100,2013-04-22 05:18:00,
2013-04-22 01:23:00,42.0,36.0,30.67,ESE,112,2.0,15.0,78,0.00,,,0.00,Rainwise IP-100,2013-04-22 05:23:00,
2013-04-22 01:28:00,42.0,36.0,30.67,ENE,67,8.0,12.0,78,0.00,,,0.00,Rainwise IP-100,2013-04-22 05:28:00,
2013-04-22 01:33:00,42.0,36.0,30.67,East,90,9.0,11.0,78,0.00,,,0.00,Rainwise IP-100,2013-04-22 05:33:00,
2013-04-22 01:38:00,42.0,36.0,30.67,East,90,5.0,15.0,78,0.00,,,0.00,Rainwise IP-100,2013-04-22 05:38:00,
2013-04-22 01:43:00,42.0,36.0,30.67,SE,135,5.0,15.0,78,0.00,,,0.00,Rainwise IP-100,2013-04-22 05:43:00,
2013-04-22 01:48:00,42.0,36.0,30.66,East,90,7.0,16.0,79,0.00,,,0.00,Rainwise IP-100,2013-04-22 05:48:00,
2013-04-22 01:53:00,42.0,36.0,30.66,NE,45,4.0,11.0,78,0.00,,,0.00,Rainwise IP-100,2013-04-22 05:53:00,
2013-04-22 01:58:00,42.0,36.0,30.66,ENE,67,10.0,10.0,78,0.00,,,0.00,Rainwise IP-100,2013-04-22 05:58:00,
2013-04-22 02:03:00,42.0,36.0,30.67,NE,45,0.0,12.0,78,0.00,,,0.00,Rainwise IP-100,2013-04-22 06:03:00,
2013-04-22 02:08:00,42.0,36.0,30.67,ENE,67,0.0,13.0,79,0.00,,,0.00,Rainwise IP-100,2013-04-22 06:08:00,
2013-04-22 02:13:00,42.0,36.0,30.67,East,90,6.0,12.0,78,0.00,,,0.00,Rainwise IP-100,2013-04-22 06:13:00,
2013-04-22 02:18:00,42.0,36.0,30.67,ENE,67,7.0,13.0,78,0.00,,,0.00,Rainwise IP-100,2013-04-22 06:18:00,
2013-04-22 02:23:00,42.0,36.0,30.67,East,90,6.0,12.0,78,0.00,,,0.00,Rainwise IP-100,2013-04-22 06:23:00,
2013-04-22 02:28:00,42.0,36.0,30.68,East,90,7.0,12.0,79,0.00,,,0.00,Rainwise IP-100,2013-04-22 06:28:00,
2013-04-22 02:34:00,42.0,36.0,30.68,East,90,2.0,10.0,78,0.00,,,0.00,Rainwise IP-100,2013-04-22 06:34:00,
2013-04-22 02:39:00,42.0,36.0,30.68,ESE,112,6.0,12.0,79,0.00,,,0.00,Rainwise IP-100,2013-04-22 06:39:00,
2013-04-22 02:44:00,42.0,36.0,30.68,East,90,7.0,15.0,78,0.00,,,0.00,Rainwise IP-100,2013-04-22 06:44:00,
2013-04-22 02:49:00,42.0,36.0,30.68,East,90,6.0,13.0,79,0.00,,,0.00,Rainwise IP-100,2013-04-22 06:49:00,
2013-04-22 02:54:00,42.0,36.0,30.68,ESE,112,7.0,13.0,78,0.00,,,0.00,Rainwise IP-100,2013-04-22 06:54:00,
2013-04-22 02:59:00,42.0,36.0,30.68,ESE,112,7.0,14.0,79,0.00,,,0.00,Rainwise IP-100,2013-04-22 06:59:00,
2013-04-22 03:04:00,42.0,36.0,30.68,East,90,10.0,12.0,78,0.00,,,0.00,Rainwise IP-100,2013-04-22 07:04:00,
2013-04-22 03:09:00,42.0,36.0,30.68,East,90,1.0,10.0,78,0.00,,,0.00,Rainwise IP-100,2013-04-22 07:09:00,
2013-04-22 03:14:00,42.0,36.0,30.68,ESE,112,7.0,13.0,78,0.00,,,0.00,Rainwise IP-100,2013-04-22 07:14:00,
2013-04-22 03:19:00,42.0,36.0,30.68,ENE,67,7.0,12.0,78,0.00,,,0.00,Rainwise IP-100,2013-04-22 07:19:00,
2013-04-22 03:24:00,42.0,36.0,30.68,ENE,67,5.0,12.0,78,0.00,,,0.00,Rainwise IP-100,2013-04-22 07:24:00,
2013-04-22 03:29:00,42.0,36.0,30.68,East,90,8.0,12.0,78,0.00,,,0.00,Rainwise IP-100,2013-04-22 07:29:00,
2013-04-22 03:34:00,42.0,36.0,30.68,East,90,7.0,12.0,78,0.00,,,0.00,Rainwise IP-100,2013-04-22 07:34:00,
2013-04-22 03:39:00,42.0,36.0,30.68,ENE,67,12.0,12.0,78,0.00,,,0.00,Rainwise IP-100,2013-04-22 07:39:00,
2013-04-22 03:44:00,42.0,36.0,30.68,East,90,6.0,13.0,78,0.00,,,0.00,Rainwise IP-100,2013-04-22 07:44:00,
2013-04-22 03:50:00,42.0,36.0,30.68,East,90,7.0,13.0,78,0.00,,,0.00,Rainwise IP-100,2013-04-22 07:50:00,
2013-04-22 03:55:00,42.0,36.0,30.68,ENE,67,7.0,14.0,78,0.00,,,0.00,Rainwise IP-100,2013-04-22 07:55:00,
2013-04-22 04:00:00,42.0,36.0,30.68,East,90,3.0,12.0,78,0.00,,,0.00,Rainwise IP-100,2013-04-22 08:00:00,
2013-04-22 04:05:00,42.0,36.0,30.68,NE,45,1.0,13.0,78,0.00,,,0.00,Rainwise IP-100,2013-04-22 08:05:00,
2013-04-22 04:10:00,42.0,36.0,30.67,East,90,12.0,12.0,78,0.00,,,0.00,Rainwise IP-100,2013-04-22 08:10:00,
2013-04-22 04:15:00,42.0,36.0,30.67,East,90,9.0,15.0,78,0.00,,,0.00,Rainwise IP-100,2013-04-22 08:15:00,
2013-04-22 04:20:00,42.0,36.0,30.67,ENE,67,11.0,17.0,78,0.00,,,0.00,Rainwise IP-100,2013-04-22 08:20:00,
2013-04-22 04:25:00,42.0,36.0,30.67,ENE,67,14.0,15.0,78,0.00,,,0.00,Rainwise IP-100,2013-04-22 08:25:00,
2013-04-22 04:30:00,42.0,36.0,30.68,East,90,6.0,15.0,78,0.00,,,0.00,Rainwise IP-100,2013-04-22 08:30:00,
2013-04-22 04:35:00,42.0,36.0,30.68,ENE,67,6.0,15.0,78,0.00,,,0.00,Rainwise IP-100,2013-04-22 08:35:00,
2013-04-22 04:40:00,42.0,36.0,30.68,ENE,67,9.0,13.0,78,0.00,,,0.00,Rainwise IP-100,2013-04-22 08:40:00,
2013-04-22 04:45:00,42.0,36.0,30.68,East,90,7.0,16.0,78,0.00,,,0.00,Rainwise IP-100,2013-04-22 08:45:00,
2013-04-22 04:50:00,42.0,36.0,30.68,ENE,67,10.0,15.0,78,0.00,,,0.00,Rainwise IP-100,2013-04-22 08:50:00,
2013-04-22 04:55:00,42.0,36.0,30.68,East,90,7.0,17.0,78,0.00,,,0.00,Rainwise IP-100,2013-04-22 08:55:00,
2013-04-22 05:00:00,42.0,36.0,30.68,ENE,67,7.0,17.0,78,0.00,,,0.00,Rainwise IP-100,2013-04-22 09:00:00,
2013-04-22 05:06:00,43.0,37.0,30.68,East,90,9.0,17.0,79,0.00,,,0.00,Rainwise IP-100,2013-04-22 09:06:00,
2013-04-22 05:11:00,42.0,36.0,30.67,East,90,10.0,19.0,78,0.00,,,0.00,Rainwise IP-100,2013-04-22 09:11:00,
2013-04-22 05:16:00,42.0,36.0,30.67,East,90,6.0,17.0,78,0.00,,,0.00,Rainwise IP-100,2013-04-22 09:16:00,
2013-04-22 05:21:00,42.0,36.0,30.68,East,90,7.0,22.0,78,0.00,,,0.00,Rainwise IP-100,2013-04-22 09:21:00,
2013-04-22 05:26:00,42.0,36.0,30.68,East,90,6.0,15.0,78,0.00,,,0.00,Rainwise IP-100,2013-04-22 09:26:00,
2013-04-22 05:31:00,42.0,36.0,30.68,East,90,9.0,15.0,78,0.00,,,0.00,Rainwise IP-100,2013-04-22 09:31:00,
2013-04-22 05:36:00,42.0,36.0,30.68,NE,45,7.0,18.0,78,0.00,,,0.00,Rainwise IP-100,2013-04-22 09:36:00,
2013-04-22 05:41:00,42.0,36.0,30.68,East,90,11.0,16.0,78,0.00,,,0.00,Rainwise IP-100,2013-04-22 09:41:00,
2013-04-22 05:46:00,42.0,36.0,30.68,East,90,6.0,19.0,78,0.00,,,0.00,Rainwise IP-100,2013-04-22 09:46:00,
2013-04-22 05:51:00,42.0,36.0,30.68,ENE,67,10.0,18.0,78,0.00,,,0.00,Rainwise IP-100,2013-04-22 09:51:00,
2013-04-22 05:56:00,42.0,36.0,30.68,East,90,8.0,18.0,78,0.00,,,0.00,Rainwise IP-100,2013-04-22 09:56:00,
2013-04-22 06:01:00,42.0,36.0,30.68,East,90,12.0,17.0,78,0.00,,,0.00,Rainwise IP-100,2013-04-22 10:01:00,
2013-04-22 06:06:00,43.0,37.0,30.68,ENE,67,9.0,16.0,79,0.00,,,0.00,Rainwise IP-100,2013-04-22 10:06:00,
2013-04-22 06:11:00,43.0,37.0,30.69,East,90,15.0,19.0,79,0.00,,,0.00,Rainwise IP-100,2013-04-22 10:11:00,
2013-04-22 06:16:00,43.0,37.0,30.69,East,90,11.0,16.0,79,0.00,,,0.00,Rainwise IP-100,2013-04-22 10:16:00,
2013-04-22 06:22:00,43.0,37.0,30.68,East,90,9.0,15.0,79,0.00,,,0.00,Rainwise IP-100,2013-04-22 10:22:00,
2013-04-22 06:27:00,43.0,37.0,30.68,ENE,67,7.0,18.0,79,0.00,,,0.00,Rainwise IP-100,2013-04-22 10:27:00,
2013-04-22 06:32:00,43.0,37.0,30.69,East,90,7.0,17.0,79,0.00,,,0.00,Rainwise IP-100,2013-04-22 10:32:00,
2013-04-22 06:37:00,43.0,37.0,30.69,East,90,6.0,20.0,79,0.00,,,0.00,Rainwise IP-100,2013-04-22 10:37:00,
2013-04-22 06:42:00,43.0,37.0,30.69,East,90,13.0,23.0,79,0.00,,,0.00,Rainwise IP-100,2013-04-22 10:42:00,
2013-04-22 06:47:00,44.0,38.0,30.69,ENE,67,8.0,17.0,79,0.00,,,0.00,Rainwise IP-100,2013-04-22 10:47:00,
2013-04-22 06:52:00,44.0,38.0,30.69,ENE,67,9.0,23.0,79,0.00,,,0.00,Rainwise IP-100,2013-04-22 10:52:00,
2013-04-22 06:57:00,44.0,38.0,30.69,East,90,10.0,20.0,79,0.00,,,0.00,Rainwise IP-100,2013-04-22 10:57:00,
2013-04-22 07:02:00,44.0,38.0,30.69,ENE,67,10.0,19.0,79,0.00,,,0.00,Rainwise IP-100,2013-04-22 11:02:00,
2013-04-22 07:07:00,44.0,38.0,30.69,East,90,13.0,18.0,79,0.00,,,0.00,Rainwise IP-100,2013-04-22 11:07:00,
2013-04-22 07:12:00,44.0,38.0,30.70,SE,135,6.0,20.0,79,0.00,,,0.00,Rainwise IP-100,2013-04-22 11:12:00,
2013-04-22 07:17:00,44.0,38.0,30.70,East,90,10.0,20.0,79,0.00,,,0.00,Rainwise IP-100,2013-04-22 11:17:00,
2013-04-22 07:22:00,44.0,38.0,30.70,ESE,112,7.0,22.0,79,0.00,,,0.00,Rainwise IP-100,2013-04-22 11:22:00,
2013-04-22 07:27:00,44.0,38.0,30.70,ESE,112,10.0,17.0,79,0.00,,,0.00,Rainwise IP-100,2013-04-22 11:27:00,
2013-04-22 07:33:00,44.0,38.0,30.70,East,90,12.0,20.0,79,0.00,,,0.00,Rainwise IP-100,2013-04-22 11:33:00,
2013-04-22 07:38:00,45.0,39.0,30.70,East,90,12.0,20.0,79,0.00,,,0.00,Rainwise IP-100,2013-04-22 11:38:00,
2013-04-22 07:43:00,45.0,39.0,30.70,ESE,112,7.0,19.0,79,0.00,,,0.00,Rainwise IP-100,2013-04-22 11:43:00,
2013-04-22 07:48:00,45.0,39.0,30.70,NE,45,7.0,17.0,79,0.00,,,0.00,Rainwise IP-100,2013-04-22 11:48:00,
2013-04-22 07:53:00,45.0,39.0,30.70,East,90,16.0,21.0,79,0.00,,,0.00,Rainwise IP-100,2013-04-22 11:53:00,
2013-04-22 07:58:00,45.0,39.0,30.70,East,90,12.0,23.0,79,0.00,,,0.00,Rainwise IP-100,2013-04-22 11:58:00,
2013-04-22 08:03:00,45.0,39.0,30.70,NE,45,8.0,19.0,79,0.00,,,0.00,Rainwise IP-100,2013-04-22 12:03:00,
2013-04-22 08:08:00,45.0,39.0,30.70,East,90,17.0,22.0,79,0.00,,,0.00,Rainwise IP-100,2013-04-22 12:08:00,
2013-04-22 08:13:00,45.0,39.0,30.69,East,90,20.0,26.0,79,0.00,,,0.00,Rainwise IP-100,2013-04-22 12:13:00,
2013-04-22 08:18:00,45.0,39.0,30.69,East,90,13.0,20.0,79,0.00,,,0.00,Rainwise IP-100,2013-04-22 12:18:00,
2013-04-22 08:23:00,46.0,39.0,30.68,ENE,67,12.0,24.0,79,0.00,,,0.00,Rainwise IP-100,2013-04-22 12:23:00,
2013-04-22 08:28:00,46.0,40.0,30.69,East,90,6.0,22.0,80,0.00,,,0.00,Rainwise IP-100,2013-04-22 12:28:00,
2013-04-22 08:33:00,46.0,39.0,30.69,SE,135,1.0,23.0,79,0.00,,,0.00,Rainwise IP-100,2013-04-22 12:33:00,
2013-04-22 08:38:00,46.0,40.0,30.68,East,90,15.0,20.0,80,0.00,,,0.00,Rainwise IP-100,2013-04-22 12:38:00,
2013-04-22 08:43:00,46.0,39.0,30.68,ESE,112,8.0,21.0,79,0.00,,,0.00,Rainwise IP-100,2013-04-22 12:43:00,
2013-04-22 08:49:00,46.0,40.0,30.69,East,90,10.0,23.0,80,0.00,,,0.00,Rainwise IP-100,2013-04-22 12:49:00,
2013-04-22 08:54:00,46.0,39.0,30.69,ENE,67,12.0,19.0,79,0.00,,,0.00,Rainwise IP-100,2013-04-22 12:54:00,
2013-04-22 08:59:00,46.0,40.0,30.70,ESE,112,13.0,22.0,80,0.00,,,0.00,Rainwise IP-100,2013-04-22 12:59:00,
2013-04-22 09:04:00,46.0,39.0,30.70,East,90,12.0,20.0,79,0.00,,,0.00,Rainwise IP-100,2013-04-22 13:04:00,
2013-04-22 09:09:00,46.0,40.0,30.70,East,90,14.0,23.0,80,0.00,,,0.00,Rainwise IP-100,2013-04-22 13:09:00,
2013-04-22 09:14:00,46.0,39.0,30.70,East,90,12.0,22.0,79,0.00,,,0.00,Rainwise IP-100,2013-04-22 13:14:00,
2013-04-22 09:19:00,46.0,39.0,30.70,ESE,112,13.0,24.0,79,0.00,,,0.00,Rainwise IP-100,2013-04-22 13:19:00,
2013-04-22 09:24:00,46.0,39.0,30.70,ESE,112,15.0,22.0,79,0.00,,,0.00,Rainwise IP-100,2013-04-22 13:24:00,
2013-04-22 09:29:00,46.0,40.0,30.72,ESE,112,12.0,22.0,80,0.00,,,0.00,Rainwise IP-100,2013-04-22 13:29:00,
2013-04-22 09:34:00,46.0,39.0,30.72,NE,45,7.0,23.0,79,0.00,,,0.00,Rainwise IP-100,2013-04-22 13:34:00,
2013-04-22 09:39:00,46.0,39.0,30.70,ENE,67,21.0,24.0,79,0.00,,,0.00,Rainwise IP-100,2013-04-22 13:39:00,
2013-04-22 09:44:00,46.0,39.0,30.70,ENE,67,10.0,22.0,79,0.00,,,0.00,Rainwise IP-100,2013-04-22 13:44:00,
2013-04-22 09:49:00,46.0,39.0,30.70,East,90,8.0,22.0,79,0.00,,,0.00,Rainwise IP-100,2013-04-22 13:49:00,
2013-04-22 09:54:00,46.0,39.0,30.70,East,90,11.0,23.0,79,0.00,,,0.00,Rainwise IP-100,2013-04-22 13:54:00,
2013-04-22 09:59:00,47.0,40.0,30.70,East,90,8.0,19.0,79,0.00,,,0.00,Rainwise IP-100,2013-04-22 13:59:00,
2013-04-22 10:05:00,47.0,40.0,30.70,East,90,14.0,20.0,79,0.00,,,0.00,Rainwise IP-100,2013-04-22 14:05:00,
2013-04-22 10:10:00,46.0,39.0,30.72,ESE,112,12.0,23.0,79,0.00,,,0.00,Rainwise IP-100,2013-04-22 14:10:00,
2013-04-22 10:15:00,47.0,40.0,30.72,East,90,12.0,23.0,79,0.00,,,0.00,Rainwise IP-100,2013-04-22 14:15:00,
2013-04-22 10:20:00,47.0,40.0,30.71,East,90,11.0,16.0,79,0.00,,,0.00,Rainwise IP-100,2013-04-22 14:20:00,
2013-04-22 10:25:00,47.0,40.0,30.71,East,90,9.0,21.0,79,0.00,,,0.00,Rainwise IP-100,2013-04-22 14:25:00,
2013-04-22 10:30:00,48.0,42.0,30.71,East,90,17.0,19.0,80,0.00,,,0.00,Rainwise IP-100,2013-04-22 14:30:00,
2013-04-22 10:35:00,47.0,40.0,30.71,East,90,12.0,19.0,79,0.00,,,0.00,Rainwise IP-100,2013-04-22 14:35:00,
2013-04-22 10:40:00,46.0,39.0,30.71,East,90,12.0,20.0,79,0.00,,,0.00,Rainwise IP-100,2013-04-22 14:40:00,
2013-04-22 10:45:00,46.0,39.0,30.71,ESE,112,17.0,19.0,79,0.00,,,0.00,Rainwise IP-100,2013-04-22 14:45:00,
2013-04-22 10:50:00,46.0,39.0,30.72,East,90,8.0,19.0,79,0.00,,,0.00,Rainwise IP-100,2013-04-22 14:50:00,
2013-04-22 10:55:00,48.0,42.0,30.72,ESE,112,7.0,15.0,80,0.00,,,0.00,Rainwise IP-100,2013-04-22 14:55:00,
2013-04-22 11:00:00,48.0,42.0,30.70,East,90,13.0,23.0,80,0.00,,,0.00,Rainwise IP-100,2013-04-22 15:00:00,
2013-04-22 11:05:00,47.0,40.0,30.70,East,90,9.0,19.0,79,0.00,,,0.00,Rainwise IP-100,2013-04-22 15:05:00,
2013-04-22 11:10:00,48.0,42.0,30.70,East,90,13.0,19.0,80,0.00,,,0.00,Rainwise IP-100,2013-04-22 15:10:00,
2013-04-22 11:15:00,48.0,42.0,30.70,ESE,112,14.0,22.0,80,0.00,,,0.00,Rainwise IP-100,2013-04-22 15:15:00,
2013-04-22 11:21:00,48.0,42.0,30.69,East,90,11.0,16.0,80,0.00,,,0.00,Rainwise IP-100,2013-04-22 15:21:00,
2013-04-22 11:26:00,48.0,42.0,30.69,ENE,67,9.0,20.0,80,0.00,,,0.00,Rainwise IP-100,2013-04-22 15:26:00,
2013-04-22 11:31:00,48.0,42.0,30.69,East,90,10.0,20.0,80,0.00,,,0.00,Rainwise IP-100,2013-04-22 15:31:00,
2013-04-22 11:36:00,47.0,40.0,30.69,ENE,67,9.0,22.0,79,0.00,,,0.00,Rainwise IP-100,2013-04-22 15:36:00,
2013-04-22 11:41:00,47.0,40.0,30.69,ENE,67,12.0,22.0,79,0.00,,,0.00,Rainwise IP-100,2013-04-22 15:41:00,
2013-04-22 11:46:00,48.0,42.0,30.69,East,90,7.0,20.0,80,0.00,,,0.00,Rainwise IP-100,2013-04-22 15:46:00,
2013-04-22 11:51:00,49.0,43.0,30.69,ENE,67,10.0,17.0,80,0.00,,,0.00,Rainwise IP-100,2013-04-22 15:51:00,
2013-04-22 11:56:00,48.0,42.0,30.69,East,90,15.0,23.0,80,0.00,,,0.00,Rainwise IP-100,2013-04-22 15:56:00,
2013-04-22 12:01:00,47.0,40.0,30.68,East,90,13.0,24.0,79,0.00,,,0.00,Rainwise IP-100,2013-04-22 16:01:00,
2013-04-22 12:06:00,47.0,40.0,30.68,East,90,15.0,20.0,79,0.00,,,0.00,Rainwise IP-100,2013-04-22 16:06:00,
2013-04-22 12:11:00,47.0,40.0,30.68,East,90,7.0,20.0,79,0.00,,,0.00,Rainwise IP-100,2013-04-22 16:11:00,
2013-04-22 12:16:00,47.0,40.0,30.68,East,90,9.0,20.0,79,0.00,,,0.00,Rainwise IP-100,2013-04-22 16:16:00,
2013-04-22 12:21:00,47.0,40.0,30.69,East,90,11.0,22.0,79,0.00,,,0.00,Rainwise IP-100,2013-04-22 16:21:00,
2013-04-22 12:26:00,47.0,40.0,30.69,SE,135,8.0,20.0,79,0.00,,,0.00,Rainwise IP-100,2013-04-22 16:26:00,
2013-04-22 12:31:00,47.0,40.0,30.69,East,90,4.0,20.0,79,0.00,,,0.00,Rainwise IP-100,2013-04-22 16:31:00,
2013-04-22 12:37:00,47.0,40.0,30.69,East,90,8.0,22.0,79,0.00,,,0.00,Rainwise IP-100,2013-04-22 16:37:00,
2013-04-22 12:42:00,46.0,39.0,30.70,East,90,10.0,23.0,79,0.00,,,0.00,Rainwise IP-100,2013-04-22 16:42:00,
2013-04-22 12:47:00,46.0,39.0,30.70,East,90,17.0,25.0,79,0.00,,,0.00,Rainwise IP-100,2013-04-22 16:47:00,
2013-04-22 12:52:00,46.0,39.0,30.68,ESE,112,13.0,22.0,79,0.00,,,0.00,Rainwise IP-100,2013-04-22 16:52:00,
2013-04-22 12:57:00,47.0,40.0,30.68,ESE,112,12.0,20.0,79,0.00,,,0.00,Rainwise IP-100,2013-04-22 16:57:00,
2013-04-22 13:02:00,47.0,40.0,30.68,East,90,15.0,19.0,79,0.00,,,0.00,Rainwise IP-100,2013-04-22 17:02:00,
2013-04-22 13:07:00,46.0,39.0,30.68,SE,135,4.0,19.0,79,0.00,,,0.00,Rainwise IP-100,2013-04-22 17:07:00,
2013-04-22 13:12:00,46.0,39.0,30.69,SE,135,12.0,25.0,79,0.00,,,0.00,Rainwise IP-100,2013-04-22 17:12:00,
2013-04-22 13:17:00,46.0,39.0,30.69,East,90,13.0,17.0,79,0.00,,,0.00,Rainwise IP-100,2013-04-22 17:17:00,
2013-04-22 13:22:00,46.0,39.0,30.69,East,90,16.0,19.0,79,0.00,,,0.00,Rainwise IP-100,2013-04-22 17:22:00,
2013-04-22 13:27:00,46.0,39.0,30.69,East,90,17.0,22.0,79,0.00,,,0.00,Rainwise IP-100,2013-04-22 17:27:00,
2013-04-22 13:32:00,46.0,39.0,30.68,East,90,9.0,21.0,79,0.00,,,0.00,Rainwise IP-100,2013-04-22 17:32:00,
2013-04-22 13:37:00,46.0,39.0,30.68,East,90,6.0,22.0,79,0.00,,,0.00,Rainwise IP-100,2013-04-22 17:37:00,
2013-04-22 13:42:00,46.0,39.0,30.68,ENE,67,12.0,20.0,79,0.00,,,0.00,Rainwise IP-100,2013-04-22 17:42:00,
2013-04-22 13:47:00,46.0,39.0,30.68,ESE,112,10.0,23.0,79,0.00,,,0.00,Rainwise IP-100,2013-04-22 17:47:00,
2013-04-22 13:53:00,46.0,39.0,30.69,SSE,157,6.0,21.0,79,0.00,,,0.00,Rainwise IP-100,2013-04-22 17:53:00,
2013-04-22 13:58:00,46.0,39.0,30.69,ENE,67,6.0,22.0,79,0.00,,,0.00,Rainwise IP-100,2013-04-22 17:58:00,
2013-04-22 14:03:00,46.0,39.0,30.69,ESE,112,6.0,20.0,79,0.00,,,0.00,Rainwise IP-100,2013-04-22 18:03:00,
2013-04-22 14:08:00,46.0,39.0,30.69,East,90,9.0,23.0,79,0.00,,,0.00,Rainwise IP-100,2013-04-22 18:08:00,
2013-04-22 14:13:00,46.0,39.0,30.68,East,90,9.0,20.0,79,0.00,,,0.00,Rainwise IP-100,2013-04-22 18:13:00,
2013-04-22 14:18:00,46.0,39.0,30.68,East,90,7.0,21.0,79,0.00,,,0.00,Rainwise IP-100,2013-04-22 18:18:00,
2013-04-22 14:23:00,46.0,39.0,30.67,East,90,13.0,22.0,79,0.00,,,0.00,Rainwise IP-100,2013-04-22 18:23:00,
2013-04-22 14:28:00,46.0,39.0,30.66,East,90,2.0,21.0,79,0.00,,,0.00,Rainwise IP-100,2013-04-22 18:28:00,
2013-04-22 14:33:00,45.0,39.0,30.66,East,90,21.0,21.0,79,0.00,,,0.00,Rainwise IP-100,2013-04-22 18:33:00,
2013-04-22 14:38:00,45.0,39.0,30.66,East,90,10.0,23.0,79,0.00,,,0.00,Rainwise IP-100,2013-04-22 18:38:00,
2013-04-22 14:43:00,45.0,39.0,30.66,East,90,15.0,24.0,79,0.00,,,0.00,Rainwise IP-100,2013-04-22 18:43:00,
2013-04-22 14:48:00,45.0,39.0,30.66,SE,135,7.0,22.0,79,0.00,,,0.00,Rainwise IP-100,2013-04-22 18:48:00,
2013-04-22 14:53:00,45.0,39.0,30.66,ESE,112,12.0,23.0,79,0.00,,,0.00,Rainwise IP-100,2013-04-22 18:53:00,
2013-04-22 14:58:00,45.0,39.0,30.66,East,90,15.0,25.0,79,0.00,,,0.00,Rainwise IP-100,2013-04-22 18:58:00,
2013-04-22 15:03:00,45.0,39.0,30.64,ESE,112,16.0,17.0,79,0.00,,,0.00,Rainwise IP-100,2013-04-22 19:03:00,
2013-04-22 15:09:00,45.0,39.0,30.64,East,90,9.0,23.0,79,0.00,,,0.00,Rainwise IP-100,2013-04-22 19:09:00,
2013-04-22 15:14:00,45.0,39.0,30.64,ESE,112,19.0,23.0,79,0.00,,,0.00,Rainwise IP-100,2013-04-22 19:14:00,
2013-04-22 15:19:00,44.0,38.0,30.66,East,90,23.0,23.0,79,0.00,,,0.00,Rainwise IP-100,2013-04-22 19:19:00,
2013-04-22 15:24:00,44.0,38.0,30.66,East,90,9.0,26.0,79,0.00,,,0.00,Rainwise IP-100,2013-04-22 19:24:00,
2013-04-22 15:29:00,45.0,39.0,30.64,ESE,112,17.0,22.0,79,0.00,,,0.00,Rainwise IP-100,2013-04-22 19:29:00,
2013-04-22 15:34:00,45.0,39.0,30.64,East,90,7.0,19.0,79,0.00,,,0.00,Rainwise IP-100,2013-04-22 19:34:00,
2013-04-22 15:39:00,44.0,38.0,30.66,East,90,7.0,20.0,79,0.00,,,0.00,Rainwise IP-100,2013-04-22 19:39:00,
2013-04-22 15:44:00,45.0,39.0,30.66,East,90,10.0,22.0,79,0.00,,,0.00,Rainwise IP-100,2013-04-22 19:44:00,
2013-04-22 15:49:00,45.0,39.0,30.65,East,90,7.0,19.0,79,0.00,,,0.00,Rainwise IP-100,2013-04-22 19:49:00,
2013-04-22 15:54:00,44.0,38.0,30.65,East,90,7.0,25.0,79,0.00,,,0.00,Rainwise IP-100,2013-04-22 19:54:00,
2013-04-22 15:59:00,45.0,39.0,30.65,East,90,15.0,22.0,79,0.00,,,0.00,Rainwise IP-100,2013-04-22 19:59:00,
2013-04-22 16:04:00,44.0,38.0,30.65,East,90,10.0,18.0,79,0.00,,,0.00,Rainwise IP-100,2013-04-22 20:04:00,
2013-04-22 16:09:00,45.0,39.0,30.64,East,90,6.0,24.0,79,0.00,,,0.00,Rainwise IP-100,2013-04-22 20:09:00,
2013-04-22 16:14:00,45.0,39.0,30.64,ENE,67,10.0,20.0,79,0.00,,,0.00,Rainwise IP-100,2013-04-22 20:14:00,
2013-04-22 16:19:00,44.0,38.0,30.64,ENE,67,9.0,19.0,79,0.00,,,0.00,Rainwise IP-100,2013-04-22 20:19:00,
2013-04-22 16:25:00,44.0,38.0,30.64,ESE,112,9.0,22.0,79,0.00,,,0.00,Rainwise IP-100,2013-04-22 20:25:00,
2013-04-22 16:30:00,44.0,38.0,30.65,ESE,112,12.0,22.0,79,0.00,,,0.00,Rainwise IP-100,2013-04-22 20:30:00,
2013-04-22 16:35:00,44.0,38.0,30.65,East,90,8.0,20.0,79,0.00,,,0.00,Rainwise IP-100,2013-04-22 20:35:00,
2013-04-22 16:40:00,44.0,38.0,30.63,ENE,67,9.0,19.0,79,0.00,,,0.00,Rainwise IP-100,2013-04-22 20:40:00,
2013-04-22 16:45:00,44.0,38.0,30.63,SE,135,9.0,24.0,79,0.00,,,0.00,Rainwise IP-100,2013-04-22 20:45:00,
2013-04-22 16:50:00,44.0,38.0,30.64,East,90,9.0,21.0,79,0.00,,,0.00,Rainwise IP-100,2013-04-22 20:50:00,
2013-04-22 16:55:00,44.0,38.0,30.64,ESE,112,13.0,22.0,79,0.00,,,0.00,Rainwise IP-100,2013-04-22 20:55:00,
2013-04-22 17:00:00,44.0,38.0,30.65,SE,135,11.0,21.0,79,0.00,,,0.00,Rainwise IP-100,2013-04-22 21:00:00,
2013-04-22 17:05:00,44.0,38.0,30.65,ENE,67,9.0,20.0,79,0.00,,,0.00,Rainwise IP-100,2013-04-22 21:05:00,
2013-04-22 17:10:00,44.0,38.0,30.64,East,90,5.0,21.0,79,0.00,,,0.00,Rainwise IP-100,2013-04-22 21:10:00,
2013-04-22 17:15:00,44.0,38.0,30.64,SE,135,9.0,20.0,79,0.00,,,0.00,Rainwise IP-100,2013-04-22 21:15:00,
2013-04-22 17:20:00,44.0,38.0,30.64,East,90,16.0,23.0,79,0.00,,,0.00,Rainwise IP-100,2013-04-22 21:20:00,
2013-04-22 17:25:00,43.0,37.0,30.64,ESE,112,11.0,19.0,79,0.00,,,0.00,Rainwise IP-100,2013-04-22 21:25:00,
2013-04-22 17:30:00,44.0,38.0,30.64,East,90,6.0,17.0,79,0.00,,,0.00,Rainwise IP-100,2013-04-22 21:30:00,
2013-04-22 17:35:00,43.0,37.0,30.64,East,90,6.0,22.0,79,0.00,,,0.00,Rainwise IP-100,2013-04-22 21:35:00,
2013-04-22 17:41:00,43.0,37.0,30.64,East,90,16.0,18.0,79,0.00,,,0.00,Rainwise IP-100,2013-04-22 21:41:00,
2013-04-22 17:46:00,43.0,37.0,30.64,East,90,13.0,23.0,79,0.00,,,0.00,Rainwise IP-100,2013-04-22 21:46:00,
2013-04-22 17:51:00,43.0,37.0,30.64,East,90,15.0,22.0,79,0.00,,,0.00,Rainwise IP-100,2013-04-22 21:51:00,
2013-04-22 17:56:00,43.0,37.0,30.64,East,90,19.0,20.0,79,0.00,,,0.00,Rainwise IP-100,2013-04-22 21:56:00,
2013-04-22 18:01:00,43.0,37.0,30.63,ENE,67,4.0,22.0,79,0.00,,,0.00,Rainwise IP-100,2013-04-22 22:01:00,
2013-04-22 18:06:00,43.0,37.0,30.63,ENE,67,12.0,22.0,79,0.00,,,0.00,Rainwise IP-100,2013-04-22 22:06:00,
2013-04-22 18:11:00,43.0,37.0,30.61,East,90,9.0,16.0,79,0.00,,,0.00,Rainwise IP-100,2013-04-22 22:11:00,
2013-04-22 18:16:00,42.0,36.0,30.61,SE,135,8.0,18.0,78,0.00,,,0.00,Rainwise IP-100,2013-04-22 22:16:00,
2013-04-22 18:21:00,42.0,36.0,30.63,ESE,112,15.0,19.0,78,0.00,,,0.00,Rainwise IP-100,2013-04-22 22:21:00,
2013-04-22 18:26:00,42.0,36.0,30.63,ENE,67,14.0,23.0,78,0.00,,,0.00,Rainwise IP-100,2013-04-22 22:26:00,
2013-04-22 18:31:00,42.0,36.0,30.62,SE,135,0.0,20.0,78,0.00,,,0.00,Rainwise IP-100,2013-04-22 22:31:00,
2013-04-22 18:36:00,42.0,36.0,30.62,SE,135,7.0,21.0,78,0.00,,,0.00,Rainwise IP-100,2013-04-22 22:36:00,
2013-04-22 18:41:00,42.0,36.0,30.63,ESE,112,9.0,17.0,78,0.00,,,0.00,Rainwise IP-100,2013-04-22 22:41:00,
2013-04-22 18:46:00,42.0,36.0,30.63,ENE,67,9.0,20.0,78,0.00,,,0.00,Rainwise IP-100,2013-04-22 22:46:00,
2013-04-22 18:51:00,42.0,36.0,30.62,East,90,15.0,18.0,78,0.00,,,0.00,Rainwise IP-100,2013-04-22 22:51:00,
2013-04-22 18:57:00,42.0,36.0,30.62,ESE,112,12.0,20.0,78,0.00,,,0.00,Rainwise IP-100,2013-04-22 22:57:00,
2013-04-22 19:02:00,42.0,36.0,30.62,East,90,8.0,22.0,78,0.00,,,0.00,Rainwise IP-100,2013-04-22 23:02:00,
2013-04-22 19:07:00,42.0,36.0,30.62,ESE,112,7.0,19.0,78,0.00,,,0.00,Rainwise IP-100,2013-04-22 23:07:00,
2013-04-22 19:12:00,42.0,36.0,30.61,SSE,157,7.0,18.0,78,0.00,,,0.00,Rainwise IP-100,2013-04-22 23:12:00,
2013-04-22 19:17:00,42.0,36.0,30.61,East,90,14.0,19.0,78,0.00,,,0.00,Rainwise IP-100,2013-04-22 23:17:00,
2013-04-22 19:22:00,42.0,36.0,30.60,East,90,10.0,23.0,78,0.00,,,0.00,Rainwise IP-100,2013-04-22 23:22:00,
2013-04-22 19:27:00,42.0,36.0,30.60,East,90,9.0,18.0,78,0.00,,,0.00,Rainwise IP-100,2013-04-22 23:27:00,
2013-04-22 19:32:00,42.0,36.0,30.61,ENE,67,12.0,19.0,78,0.00,,,0.00,Rainwise IP-100,2013-04-22 23:32:00,
2013-04-22 19:37:00,42.0,36.0,30.61,ENE,67,10.0,23.0,78,0.00,,,0.00,Rainwise IP-100,2013-04-22 23:37:00,
2013-04-22 19:42:00,42.0,36.0,30.61,ESE,112,7.0,21.0,78,0.00,,,0.00,Rainwise IP-100,2013-04-22 23:42:00,
2013-04-22 19:47:00,42.0,36.0,30.61,SE,135,9.0,21.0,78,0.00,,,0.00,Rainwise IP-100,2013-04-22 23:47:00,
2013-04-22 19:52:00,42.0,36.0,30.62,SE,135,5.0,19.0,78,0.00,,,0.00,Rainwise IP-100,2013-04-22 23:52:00,
2013-04-22 19:57:00,42.0,36.0,30.62,East,90,16.0,21.0,78,0.00,,,0.00,Rainwise IP-100,2013-04-22 23:57:00,
2013-04-22 20:02:00,42.0,36.0,30.62,ESE,112,11.0,22.0,78,0.00,,,0.00,Rainwise IP-100,2013-04-23 00:02:00,
2013-04-22 20:07:00,42.0,36.0,30.62,ESE,112,16.0,19.0,78,0.00,,,0.00,Rainwise IP-100,2013-04-23 00:07:00,
2013-04-22 20:13:00,42.0,36.0,30.62,ENE,67,7.0,20.0,78,0.00,,,0.00,Rainwise IP-100,2013-04-23 00:13:00,
2013-04-22 20:18:00,42.0,36.0,30.62,East,90,7.0,23.0,78,0.00,,,0.00,Rainwise IP-100,2013-04-23 00:18:00,
2013-04-22 20:23:00,42.0,36.0,30.62,SE,135,10.0,21.0,78,0.00,,,0.00,Rainwise IP-100,2013-04-23 00:23:00,
2013-04-22 20:28:00,42.0,36.0,30.62,East,90,7.0,20.0,78,0.00,,,0.00,Rainwise IP-100,2013-04-23 00:28:00,
2013-04-22 20:33:00,42.0,36.0,30.62,ESE,112,13.0,19.0,78,0.00,,,0.00,Rainwise IP-100,2013-04-23 00:33:00,
2013-04-22 20:38:00,42.0,36.0,30.62,East,90,17.0,20.0,78,0.00,,,0.00,Rainwise IP-100,2013-04-23 00:38:00,
2013-04-22 20:43:00,42.0,36.0,30.62,East,90,12.0,17.0,78,0.00,,,0.00,Rainwise IP-100,2013-04-23 00:43:00,
2013-04-22 20:48:00,42.0,36.0,30.62,East,90,14.0,17.0,78,0.00,,,0.00,Rainwise IP-100,2013-04-23 00:48:00,
2013-04-22 20:53:00,42.0,36.0,30.62,East,90,8.0,19.0,78,0.00,,,0.00,Rainwise IP-100,2013-04-23 00:53:00,
2013-04-22 20:58:00,42.0,36.0,30.62,East,90,8.0,20.0,78,0.00,,,0.00,Rainwise IP-100,2013-04-23 00:58:00,
2013-04-22 21:03:00,42.0,36.0,30.61,East,90,9.0,22.0,78,0.00,,,0.00,Rainwise IP-100,2013-04-23 01:03:00,
2013-04-22 21:09:00,42.0,36.0,30.61,East,90,7.0,22.0,78,0.00,,,0.00,Rainwise IP-100,2013-04-23 01:09:00,
2013-04-22 21:14:00,42.0,36.0,30.61,East,90,3.0,22.0,78,0.00,,,0.00,Rainwise IP-100,2013-04-23 01:14:00,
2013-04-22 21:19:00,42.0,36.0,30.60,East,90,9.0,17.0,78,0.00,,,0.00,Rainwise IP-100,2013-04-23 01:19:00,
2013-04-22 21:24:00,42.0,36.0,30.60,SE,135,3.0,20.0,78,0.00,,,0.00,Rainwise IP-100,2013-04-23 01:24:00,
2013-04-22 21:29:00,42.0,36.0,30.60,East,90,6.0,19.0,78,0.00,,,0.00,Rainwise IP-100,2013-04-23 01:29:00,
2013-04-22 21:34:00,42.0,36.0,30.60,ESE,112,7.0,17.0,78,0.00,,,0.00,Rainwise IP-100,2013-04-23 01:34:00,
2013-04-22 21:39:00,42.0,36.0,30.60,East,90,9.0,18.0,78,0.00,,,0.00,Rainwise IP-100,2013-04-23 01:39:00,
2013-04-22 21:44:00,42.0,36.0,30.60,East,90,8.0,19.0,78,0.00,,,0.00,Rainwise IP-100,2013-04-23 01:44:00,
2013-04-22 21:49:00,42.0,36.0,30.59,East,90,12.0,19.0,78,0.00,,,0.00,Rainwise IP-100,2013-04-23 01:49:00,
2013-04-22 21:54:00,42.0,36.0,30.59,East,90,16.0,20.0,78,0.00,,,0.00,Rainwise IP-100,2013-04-23 01:54:00,
2013-04-22 21:59:00,42.0,36.0,30.59,East,90,13.0,18.0,78,0.00,,,0.00,Rainwise IP-100,2013-04-23 01:59:00,
2013-04-22 22:04:00,42.0,36.0,30.59,East,90,12.0,17.0,78,0.00,,,0.00,Rainwise IP-100,2013-04-23 02:04:00,
2013-04-22 22:09:00,42.0,36.0,30.59,ESE,112,9.0,19.0,78,0.00,,,0.00,Rainwise IP-100,2013-04-23 02:09:00,
2013-04-22 22:14:00,42.0,36.0,30.59,East,90,12.0,16.0,78,0.00,,,0.00,Rainwise IP-100,2013-04-23 02:14:00,
2013-04-22 22:19:00,42.0,36.0,30.59,East,90,10.0,20.0,78,0.00,,,0.00,Rainwise IP-100,2013-04-23 02:19:00,
2013-04-22 22:25:00,42.0,36.0,30.59,SE,135,9.0,20.0,78,0.00,,,0.00,Rainwise IP-100,2013-04-23 02:25:00,
2013-04-22 22:30:00,42.0,36.0,30.59,ESE,112,5.0,17.0,78,0.00,,,0.00,Rainwise IP-100,2013-04-23 02:30:00,
2013-04-22 22:35:00,42.0,36.0,30.59,ESE,112,12.0,18.0,78,0.00,,,0.00,Rainwise IP-100,2013-04-23 02:35:00,
2013-04-22 22:40:00,42.0,36.0,30.58,East,90,12.0,17.0,78,0.00,,,0.00,Rainwise IP-100,2013-04-23 02:40:00,
2013-04-22 22:45:00,42.0,36.0,30.58,ESE,112,17.0,17.0,78,0.00,,,0.00,Rainwise IP-100,2013-04-23 02:45:00,
2013-04-22 22:50:00,42.0,36.0,30.58,ENE,67,7.0,19.0,78,0.00,,,0.00,Rainwise IP-100,2013-04-23 02:50:00,
2013-04-22 22:55:00,42.0,36.0,30.58,East,90,11.0,20.0,78,0.00,,,0.00,Rainwise IP-100,2013-04-23 02:55:00,
2013-04-22 23:00:00,42.0,36.0,30.57,East,90,8.0,18.0,78,0.00,,,0.00,Rainwise IP-100,2013-04-23 03:00:00,
2013-04-22 23:05:00,42.0,36.0,30.57,East,90,5.0,18.0,78,0.00,,,0.00,Rainwise IP-100,2013-04-23 03:05:00,
2013-04-22 23:10:00,42.0,36.0,30.57,ENE,67,13.0,18.0,78,0.00,,,0.00,Rainwise IP-100,2013-04-23 03:10:00,
2013-04-22 23:15:00,42.0,36.0,30.57,East,90,9.0,19.0,78,0.00,,,0.00,Rainwise IP-100,2013-04-23 03:15:00,
2013-04-22 23:20:00,42.0,36.0,30.56,ESE,112,3.0,19.0,78,0.00,,,0.00,Rainwise IP-100,2013-04-23 03:20:00,
2013-04-22 23:25:00,42.0,36.0,30.56,ESE,112,7.0,17.0,78,0.00,,,0.00,Rainwise IP-100,2013-04-23 03:25:00,
2013-04-22 23:30:00,42.0,36.0,30.56,East,90,7.0,19.0,78,0.00,,,0.00,Rainwise IP-100,2013-04-23 03:30:00,
2013-04-22 23:35:00,42.0,36.0,30.56,East,90,7.0,20.0,77,0.00,,,0.00,Rainwise IP-100,2013-04-23 03:35:00,
2013-04-22 23:40:00,42.0,36.0,30.56,East,90,12.0,19.0,77,0.00,,,0.00,Rainwise IP-100,2013-04-23 03:40:00,
2013-04-22 23:45:00,42.0,36.0,30.56,SE,135,16.0,19.0,77,0.00,,,0.00,Rainwise IP-100,2013-04-23 03:45:00,
2013-04-22 23:50:00,42.0,36.0,30.56,East,90,13.0,19.0,77,0.00,,,0.00,Rainwise IP-100,2013-04-23 03:50:00,
2013-04-22 23:55:00,42.0,36.0,30.56,East,90,6.0,18.0,77,0.00,,,0.00,Rainwise IP-100,2013-04-23 03:55:00,